| time (UTC) | temp F | wind direction | speed knots | gust knots | rain 1hr in | rain 24hr in | rain mn in | humidity % | barometer mb |
| 20260510100105 | 0 | 0.0 | 0.0 | 0.00 | 0.18 | 0.00 | 1008.9 | ||
| 20260510094553 | 0 | 0.0 | 0.0 | 0.00 | 0.18 | 0.00 | 1008.5 | ||
| 20260510093049 | 0 | 0.0 | 0.0 | 0.00 | 0.18 | 0.00 | 1008.5 | ||
| 20260510091545 | 0 | 0.0 | 0.0 | 0.00 | 0.18 | 0.00 | 1008.3 | ||
| 20260510090041 | 0 | 0.0 | 0.0 | 0.00 | 0.18 | 0.00 | 1008.1 | ||
| 20260510084540 | 0 | 0.0 | 0.0 | 0.00 | 0.18 | 0.00 | 1007.9 | ||
| 20260510083033 | 0 | 0.0 | 0.0 | 0.00 | 0.18 | 0.00 | 1007.9 | ||
| 20260510081527 | 0 | 223 | 0.0 | 0.0 | 0.00 | 0.18 | 0.00 | 1007.8 | |
| 20260510080032 | 0 | 223 | 0.0 | 0.9 | 0.00 | 0.18 | 0.00 | 1007.9 | |
| 20260510074518 | 0 | 220 | 0.0 | 0.0 | 0.00 | 0.18 | 0.00 | 1008.0 | |
| 20260510073013 | 0 | 220 | 0.0 | 0.0 | 0.00 | 0.18 | 0.00 | 1007.9 | |
| 20260510071512 | 0 | 220 | 0.0 | 0.0 | 0.00 | 0.18 | 0.00 | 1007.8 | |
| 20260510070005 | 0 | 220 | 0.0 | 0.0 | 0.00 | 0.18 | 0.00 | 1007.6 | |
| 20260510064502 | 0 | 220 | 0.0 | 0.0 | 0.00 | 0.18 | 0.00 | 1007.8 | |
| 20260510063057 | 0 | 220 | 0.0 | 0.9 | 0.00 | 0.18 | 0.00 | 1008.0 | |
| 20260510061553 | 0 | 220 | 0.0 | 0.9 | 0.00 | 0.18 | 0.00 | 1008.0 | |
| 20260510060051 | 0 | 220 | 0.0 | 0.0 | 0.00 | 0.18 | 0.00 | 1008.0 | |
| 20260510054545 | 0 | 220 | 0.0 | 0.9 | 0.00 | 0.19 | 0.00 | 1008.5 | |
| 20260510053044 | 0 | 220 | 0.0 | 0.9 | 0.00 | 0.19 | 0.00 | 1008.5 | |
| 20260510051547 | 0 | 223 | 0.0 | 0.9 | 0.00 | 0.19 | 0.00 | 1008.9 | |
| 20260510050036 | 0 | 223 | 0.0 | 0.0 | 0.00 | 0.19 | 0.00 | 1009.1 | |
| 20260510044525 | 0 | 223 | 0.0 | 0.9 | 0.00 | 0.19 | 0.00 | 1009.2 | |
| 20260510043021 | 0 | 222 | 0.0 | 0.9 | 0.01 | 0.19 | 0.00 | 1009.0 | |
| 20260510041518 | 0 | 225 | 0.0 | 0.0 | 0.01 | 0.19 | 0.00 | 1009.2 | |
| 20260510040013 | 0 | 225 | 0.0 | 0.9 | 0.01 | 0.24 | 0.19 | 1009.1 | |
| 20260510034508 | 0 | 225 | 0.0 | 0.0 | 0.01 | 0.24 | 0.19 | 1009.2 | |
| 20260510033004 | 0 | 200 | 0.0 | 0.0 | 0.00 | 0.23 | 0.18 | 1009.4 | |
| 20260510031601 | 0 | 224 | 0.0 | 0.0 | 0.00 | 0.23 | 0.18 | 1009.5 | |
| 20260510030059 | 0 | 224 | 0.0 | 0.0 | 0.00 | 0.23 | 0.18 | 1009.2 | |
| 20260510024551 | 0 | 224 | 0.0 | 0.0 | 0.00 | 0.24 | 0.18 | 1009.0 | |
| 20260510023046 | 0 | 223 | 0.0 | 0.0 | 0.00 | 0.24 | 0.18 | 1008.6 | |
| 20260510021552 | 0 | 229 | 0.0 | 0.0 | 0.00 | 0.24 | 0.18 | 1008.5 | |
| 20260510020038 | 0 | 229 | 0.0 | 0.0 | 0.00 | 0.24 | 0.18 | 1008.4 | |
| 20260510014533 | 0 | 103 | 0.0 | 0.0 | 0.00 | 0.24 | 0.18 | 1008.0 | |
| 20260510013030 | 0 | 9 | 0.0 | 0.0 | 0.00 | 0.24 | 0.18 | 1007.7 | |
| 20260510011524 | 0 | 330 | 0.0 | 0.0 | 0.00 | 0.24 | 0.18 | 1008.0 | |
| 20260510010020 | 0 | 330 | 0.0 | 0.0 | 0.00 | 0.24 | 0.18 | 1007.8 | |
| 20260510004518 | 0 | 330 | 0.0 | 0.0 | 0.01 | 0.24 | 0.18 | 1007.7 | |
| 20260510003011 | 0 | 269 | 0.0 | 0.0 | 0.01 | 0.24 | 0.18 | 1008.0 | |
| 20260510001507 | 0 | 243 | 0.0 | 0.0 | 0.01 | 0.24 | 0.18 | 1008.0 | |
| 20260510000003 | 0 | 243 | 0.0 | 0.0 | 0.02 | 0.24 | 0.18 | 1008.3 | |
| 20260509234558 | 0 | 243 | 0.0 | 0.0 | 0.01 | 0.23 | 0.17 | 1008.2 | |
| 20260509233054 | 0 | 313 | 0.0 | 0.0 | 0.01 | 0.23 | 0.17 | 1008.3 | |
| 20260509231552 | 0 | 313 | 0.0 | 0.0 | 0.01 | 0.23 | 0.17 | 1008.2 | |
| 20260509230049 | 0 | 53 | 0.0 | 2.6 | 0.00 | 0.22 | 0.16 | 1008.0 | |
| 20260509224541 | 0 | 65 | 0.9 | 2.6 | 0.00 | 0.22 | 0.16 | 1008.0 | |
| 20260509223038 | 0 | 30 | 0.9 | 3.5 | 0.00 | 0.22 | 0.16 | 1008.0 | |
| 20260509221532 | 0 | 19 | 3.5 | 5.2 | 0.00 | 0.22 | 0.16 | 1008.0 | |
| 20260509220038 | 0 | 32 | 3.5 | 6.1 | 0.00 | 0.22 | 0.16 | 1008.0 | |
| 20260509214523 | 0 | 31 | 5.2 | 8.7 | 0.00 | 0.22 | 0.16 | 1008.0 | |
| 20260509213019 | 0 | 351 | 5.2 | 8.7 | 0.00 | 0.22 | 0.16 | 1007.7 | |
| 20260509211518 | 0 | 342 | 6.1 | 10.4 | 0.00 | 0.22 | 0.16 | 1007.7 | |
| 20260509210010 | 0 | 342 | 6.1 | 11.3 | 0.01 | 0.22 | 0.16 | 1007.4 | |
| 20260509204511 | 0 | 314 | 6.1 | 9.6 | 0.02 | 0.22 | 0.16 | 1007.5 | |
| 20260509203001 | 0 | 315 | 2.6 | 7.8 | 0.02 | 0.22 | 0.16 | 1007.7 | |
| 20260509201557 | 0 | 331 | 1.7 | 7.0 | 0.03 | 0.22 | 0.16 | 1007.5 | |
| 20260509200107 | 0 | 299 | 1.7 | 6.1 | 0.03 | 0.21 | 0.15 | 1007.5 | |
| 20260509194554 | 0 | 340 | 0.0 | 0.9 | 0.11 | 0.20 | 0.14 | 1007.5 | |
| 20260509193047 | 0 | 212 | 0.0 | 0.9 | 0.13 | 0.20 | 0.14 | 1007.5 | |
| 20260509191540 | 0 | 236 | 0.0 | 0.0 | 0.12 | 0.19 | 0.13 | 1007.7 | |
| 20260509190036 | 0 | 294 | 0.0 | 0.9 | 0.11 | 0.18 | 0.12 | 1007.6 | |
| 20260509184535 | 0 | 219 | 0.0 | 6.1 | 0.02 | 0.09 | 0.03 | 1007.5 | |
| 20260509183026 | 0 | 119 | 3.5 | 4.3 | 0.00 | 0.07 | 0.01 | 1007.5 | |
| 20260509181522 | 0 | 101 | 2.6 | 4.3 | 0.00 | 0.07 | 0.01 | 1007.7 | |
| 20260509180018 | 0 | 105 | 0.9 | 3.5 | 0.00 | 0.07 | 0.01 | 1007.7 | |
| 20260509174535 | 0 | 61 | 2.6 | 4.3 | 0.00 | 0.07 | 0.01 | 1007.9 | |
| 20260509173008 | 0 | 111 | 3.5 | 5.2 | 0.00 | 0.07 | 0.01 | 1008.0 | |
| 20260509171506 | 0 | 82 | 1.7 | 3.5 | 0.00 | 0.07 | 0.01 | 1008.0 | |
| 20260509170101 | 0 | 146 | 1.7 | 5.2 | 0.00 | 0.07 | 0.01 | 1008.0 | |
| 20260509164602 | 0 | 100 | 1.7 | 3.5 | 0.00 | 0.07 | 0.01 | 1008.1 | |
| 20260509163051 | 0 | 150 | 3.5 | 7.0 | 0.00 | 0.07 | 0.01 | 1008.1 | |
| 20260509161547 | 0 | 105 | 0.9 | 2.6 | 0.00 | 0.07 | 0.01 | 1008.5 | |
| 20260509160043 | 0 | 135 | 0.0 | 1.7 | 0.00 | 0.07 | 0.01 | 1008.5 | |
| 20260509154538 | 0 | 103 | 0.0 | 6.1 | 0.00 | 0.07 | 0.01 | 1008.5 | |
| 20260509153046 | 0 | 93 | 1.7 | 6.1 | 0.00 | 0.07 | 0.01 | 1008.4 | |
| 20260509151530 | 0 | 67 | 0.9 | 4.3 | 0.00 | 0.07 | 0.01 | 1008.5 | |
| 20260509150036 | 0 | 98 | 0.9 | 2.6 | 0.00 | 0.07 | 0.01 | 1008.5 | |
| 20260509144521 | 0 | 86 | 0.0 | 0.9 | 0.00 | 0.07 | 0.01 | 1008.6 | |
| 20260509143017 | 0 | 39 | 0.0 | 2.6 | 0.00 | 0.07 | 0.01 | 1008.5 | |
| 20260509141513 | 0 | 38 | 0.0 | 0.9 | 0.00 | 0.07 | 0.01 | 1008.5 | |
| 20260509140008 | 0 | 114 | 0.0 | 1.7 | 0.00 | 0.07 | 0.01 | 1008.4 | |
| 20260509134503 | 0 | 335 | 0.0 | 1.7 | 0.00 | 0.07 | 0.01 | 1008.5 | |
| 20260509133200 | 0 | 313 | 0.0 | 2.6 | 0.00 | 0.07 | 0.01 | 1008.5 | |
| 20260509131605 | 0 | 298 | 0.9 | 3.5 | 0.00 | 0.07 | 0.01 | 1008.2 | |
| 20260509130051 | 0 | 343 | 0.0 | 2.6 | 0.00 | 0.07 | 0.01 | 1008.0 | |
| 20260509124549 | 0 | 311 | 0.0 | 2.6 | 0.00 | 0.07 | 0.01 | 1008.0 | |
| 20260509123049 | 0 | 21 | 0.0 | 0.0 | 0.00 | 0.07 | 0.01 | 1007.6 | |
| 20260509121538 | 0 | 342 | 0.0 | 1.7 | 0.00 | 0.07 | 0.01 | 1007.5 | |
| 20260509120037 | 0 | 294 | 0.0 | 4.3 | 0.00 | 0.07 | 0.01 | 1007.5 | |
| 20260509114529 | 0 | 336 | 0.0 | 2.6 | 0.00 | 0.07 | 0.01 | 1007.3 | |
| 20260509113030 | 0 | 0.0 | 0.0 | 0.00 | 0.07 | 0.01 | 1006.9 | ||
| 20260509111520 | 0 | 0.0 | 0.0 | 0.00 | 0.07 | 0.01 | 1006.6 | ||
| 20260509110016 | 0 | 0.0 | 0.0 | 0.00 | 0.07 | 0.01 | 1006.4 | ||
| 20260509104512 | 0 | 0.0 | 0.0 | 0.00 | 0.07 | 0.01 | 1005.9 | ||
| 20260509103007 | 0 | 0.0 | 0.0 | 0.00 | 0.07 | 0.01 | 1006.2 | ||
| 20260509101503 | 0 | 0.0 | 0.0 | 0.00 | 0.07 | 0.01 | 1006.1 |